User: anonymous   Login
Location: Unspecified
(0.0000°N, 0.0000°E)
Time: 22:21:57
(UTC+00:00)
Language:

STARLINK-5796 - Orbit

View from above orbital plane
View from above orbital plane
View from above satellite
View from above satellite

Ground track
Ground track

The orbit is defined by the following mean orbital elements,

1 55916U          26145.32740766 +.00000000 +00000-0 -10391-3 0 00000
2 55916  69.9995 111.3537 0004033 263.5517  96.5183 14.98327914    05
Epoch (UTC): 25 May 2026 07:51:28
Eccentricity: 0.0004033
inclination: 69.9995°
perigee height: 569 km
apogee height: 575 km
right ascension of ascending node: 111.3537°
argument of perigee: 263.5517°
revolutions per day: 14.98327914
mean anomaly at epoch: 96.5183°

The dashed part of the orbit path shows where the satellite is in the earth's shadow,  

DLR